シャイン-シャルダハ彗星

61P/Shajn-Schaldach (2008)

English version
Home page
Total 6,336 html files since Dec. 4, 1995
Updated on August 2, 2008

---------------------------------------------------------------------

・ プロフィール

・ 写真集

・ 軌道要素

The following orbital elements are taken from MPC 54170:

Epoch 2008 Sept. 11.0 TT = JDT 2454720.5
T 2008 Sept. 6.1008 TT                                  MPC
q   2.108011             (2000.0)            P               Q
n   0.1398545      Peri.  221.6221      +0.9071530      -0.4197015
a   3.675798       Node   163.1184      +0.4084290      +0.8607917
e   0.426516       Incl.    6.0091      +0.1012880      +0.2879033
P   7.05
From 148 observations 1971-2001, mean residual 1".0.  Nongravitational
     parameters A1 = +0.40, A2 = -0.1136.

・ 星図

・ 光度変化

        m1 = 12.0 + 5 logΔ + 10.0 log r(t + 65)

---------------------------------------------------------------------

軌道要素はMPCのEphemerides and Orbital Elementsに掲載されたものです。
星図は StellaNavigator Ver.2.0 for Windows (アストロアーツ 編著 / アスキー出版局刊) で作成したものです。
光度グラフはComet for Windowsで作成したものです。

---------------------------------------------------------------------

Copyright(C) 1995-2008 Seiichi Yoshida (comet@aerith.net). All rights reserved.